H1 CPF 2 NER 2023 5 30 9 150 01 glonass137 H2 1705501 9137 42939 2023 5 30 0 0 0 2023 6 2 23 45 0 900 1 1 0 0 0 1 H9 10 0 60094 0.00000 0 1609923.113 -11924985.968 -22480086.146 10 0 60094 900.00000 0 4170824.251 -12851656.165 -21626211.975 10 0 60094 1800.00000 0 6538203.439 -13907377.845 -20351951.027 10 0 60094 2700.00000 0 8662166.526 -15047485.756 -18682157.828 10 0 60094 3600.00000 0 10502870.620 -16220148.544 -16649363.802 10 0 60094 4500.00000 0 12031922.337 -17368567.943 -14293139.114 10 0 60094 5400.00000 0 13233297.633 -18433404.548 -11659318.481 10 0 60094 6300.00000 0 14103746.523 -19355327.965 -8799106.211 10 0 60094 7200.00000 0 14652667.579 -20077583.902 -5768078.067 10 0 60094 8100.00000 0 14901459.322 -20548470.081 -2625099.582 10 0 60094 9000.00000 0 14882377.501 -20723616.769 568817.954 10 0 60094 9900.00000 0 14636947.889 -20567975.937 3751701.368 10 0 60094 10800.00000 0 14214002.725 -20057435.412 6861816.234 10 0 60094 11700.00000 0 13667424.543 -19179990.179 9838860.919 10 0 60094 12600.00000 0 13053693.130 -17936421.556 12625130.966 10 0 60094 13500.00000 0 12429339.332 -16340455.630 15166631.555 10 0 60094 14400.00000 0 11848412.990 -14418393.932 17414116.988 10 0 60094 15300.00000 0 11360071.448 -12208231.305 19324037.683 10 0 60094 16200.00000 0 11006389.736 -9758297.001 20859377.147 10 0 60094 17100.00000 0 10820484.091 -7125474.636 21990363.526 10 0 60094 18000.00000 0 10825027.362 -4373073.877 22695042.740 10 0 60094 18900.00000 0 11031218.474 -1568440.916 22959702.680 10 0 60094 19800.00000 0 11438249.301 1219594.573 22779140.659 10 0 60094 20700.00000 0 12033291.741 3923331.510 22156768.948 10 0 60094 21600.00000 0 12792006.240 6478761.609 21104556.083 10 0 60094 22500.00000 0 13679551.388 8827980.557 19642804.436 10 0 60094 23400.00000 0 14652053.334 10921347.058 17799767.473 10 0 60094 24300.00000 0 15658474.438 12719300.760 15611113.005 10 0 60094 25200.00000 0 16642803.683 14193763.927 13119241.694 10 0 60094 26100.00000 0 17546477.457 15329068.653 10372472.922 10 0 60094 27000.00000 0 18310929.223 16122371.061 7424112.949 10 0 60094 27900.00000 0 18880160.639 16583535.220 4331422.772 10 0 60094 28800.00000 0 19203225.235 16734491.781 1154505.547 10 0 60094 29700.00000 0 19236518.967 16608098.550 -2044864.731 10 0 60094 30600.00000 0 18945779.809 16246551.379 -5204450.045 10 0 60094 31500.00000 0 18307710.488 15699413.027 -8262766.420 10 0 60094 32400.00000 0 17311154.398 15021343.991 -11160288.607 10 0 60094 33300.00000 0 15957773.583 14269632.139 -13840616.971 10 0 60094 34200.00000 0 14262198.817 13501626.547 -16251582.876 10 0 60094 35100.00000 0 12251644.321 12772185.022 -18346270.289 10 0 60094 36000.00000 0 9965002.314 12131244.042 -20083933.167 10 0 60094 36900.00000 0 7451454.676 11621614.490 -21430790.437 10 0 60094 37800.00000 0 4768659.373 11277096.704 -22360683.113 10 0 60094 38700.00000 0 1980587.040 11120994.596 -22855580.948 10 0 60094 39600.00000 0 -844902.211 11165091.480 -22905929.143 10 0 60094 40500.00000 0 -3638641.051 11409130.497 -22510828.860 10 0 60094 41400.00000 0 -6332789.095 11840821.180 -21678048.524 10 0 60094 42300.00000 0 -8863409.783 12436371.317 -20423866.186 10 0 60094 43200.00000 0 -11172883.433 13161521.217 -18772746.438 10 0 60094 44100.00000 0 -13212056.926 13973036.240 -16756858.474 10 0 60094 45000.00000 0 -14942041.535 14820594.247 -14415444.961 10 0 60094 45900.00000 0 -16335585.309 15648987.975 -11794054.195 10 0 60094 46800.00000 0 -17377964.178 16400549.180 -8943650.639 10 0 60094 47700.00000 0 -18067356.178 17017692.051 -5919621.378 10 0 60094 48600.00000 0 -18414684.806 17445468.427 -2780697.990 10 0 60094 49500.00000 0 -18442939.788 17634026.963 412185.003 10 0 60094 50400.00000 0 -18186005.331 17540872.428 3597072.672 10 0 60094 51300.00000 0 -17687046.544 17132829.901 6712190.113 10 0 60094 52200.00000 0 -16996523.016 16387631.042 9697137.420 10 0 60094 53100.00000 0 -16169913.991 15295055.602 12494056.099 10 0 60094 54000.00000 0 -15265251.335 13857579.970 15048744.589 10 0 60094 54900.00000 0 -14340564.235 12090505.157 17311701.781 10 0 60094 55800.00000 0 -13451342.950 10021558.253 19239078.923 10 0 60094 56700.00000 0 -12648127.763 7689983.212 20793522.312 10 0 60094 57600.00000 0 -11974323.891 5145157.758 21944891.252 10 0 60094 58500.00000 0 -11464333.449 2444792.752 22670838.159 10 0 60094 59400.00000 0 -11142082.356 -347212.594 22957240.209 10 0 60094 60300.00000 0 -11020003.596 -3163172.215 22798474.557 10 0 60094 61200.00000 0 -11098519.413 -5934173.296 22197531.844 10 0 60094 62100.00000 0 -11366044.330 -8592690.337 21165965.547 10 0 60094 63000.00000 0 -11799509.392 -11075146.109 19723677.500 10 0 60094 63900.00000 0 -12365386.272 -13324314.277 17898542.885 10 0 60094 64800.00000 0 -13021169.111 -15291464.699 15725880.859 10 0 60094 65700.00000 0 -13717252.556 -16938162.698 13247779.909 10 0 60094 66600.00000 0 -14399127.667 -18237647.528 10512289.933 10 0 60094 67500.00000 0 -15009803.578 -19175732.584 7572495.806 10 0 60094 68400.00000 0 -15492352.868 -19751189.607 4485489.748 10 0 60094 69300.00000 0 -15792472.848 -19975600.704 1311262.211 10 0 60094 70200.00000 0 -15860953.825 -19872684.420 -1888467.070 10 0 60094 71100.00000 0 -15655948.951 -19477124.354 -5051454.712 10 0 60094 72000.00000 0 -15144948.339 -18832950.048 -8116151.764 10 0 60094 72900.00000 0 -14306372.467 -17991538.997 -11022909.615 10 0 60094 73800.00000 0 -13130716.012 -17009324.855 -13715149.282 10 0 60094 74700.00000 0 -11621192.277 -15945309.459 -16140470.328 10 0 60094 75600.00000 0 -9793849.676 -14858484.601 -18251677.034 10 0 60094 76500.00000 0 -7677154.136 -13805273.182 -20007701.313 10 0 60094 77400.00000 0 -5311053.985 -12837098.378 -21374404.049 10 0 60094 78300.00000 0 -2745565.735 -11998183.735 -22325239.278 10 0 60094 79200.00000 0 -38939.325 -11323677.047 -22841768.463 10 0 60094 80100.00000 0 2744520.963 -10838176.875 -22914015.253 10 0 60094 81000.00000 0 5536889.420 -10554723.362 -22540654.272 10 0 60094 81900.00000 0 8269204.684 -10474295.140 -21729030.801 10 0 60094 82800.00000 0 10874101.087 -10585832.721 -20495011.419 10 0 60094 83700.00000 0 13288376.603 -10866786.499 -18862668.944 10 0 60094 84600.00000 0 15455391.177 -11284165.360 -16863808.106 10 0 60094 85500.00000 0 17327196.355 -11796040.847 -14537341.465 10 0 60095 0.00000 0 18866308.364 -12353442.640 -11928528.167 10 0 60095 900.00000 0 20047052.627 -12902565.023 -9088089.074 10 0 60095 1800.00000 0 20856422.909 -13387189.902 -6071219.247 10 0 60095 2700.00000 0 21294423.341 -13751224.684 -2936512.544 10 0 60095 3600.00000 0 21373878.389 -13941246.797 255177.128 10 0 60095 4500.00000 0 21119721.119 -13908947.497 3441916.899 10 0 60095 5400.00000 0 20567790.820 -13613371.629 6561895.021 10 0 60095 6300.00000 0 19763191.698 -13022858.756 9554616.662 10 0 60095 7200.00000 0 18758282.499 -12116603.700 12362072.219 10 0 60095 8100.00000 0 17610382.132 -10885770.604 14929855.836 10 0 60095 9000.00000 0 16379287.926 -9334113.294 17208212.903 10 0 60095 9900.00000 0 15124710.637 -7478075.349 19152996.868 10 0 60095 10800.00000 0 13903733.457 -5346364.845 20726517.636 10 0 60095 11700.00000 0 12768400.966 -2979020.431 21898265.952 10 0 60095 12600.00000 0 11763538.349 -426006.368 22645500.515 10 0 60095 13500.00000 0 10924891.453 2254606.554 22953687.095 10 0 60095 14400.00000 0 10277664.895 4998800.277 22816781.560 10 0 60095 15300.00000 0 9835518.950 7739020.926 22237351.407 10 0 60095 16200.00000 0 9600066.969 10406744.034 21226533.183 10 0 60095 17100.00000 0 9560894.384 12935088.574 19803826.027 10 0 60095 18000.00000 0 9696098.797 15261372.448 17996724.454 10 0 60095 18900.00000 0 9973328.871 17329504.188 15840196.402 10 0 60095 19800.00000 0 10351278.914 19092111.935 13376015.493 10 0 60095 20700.00000 0 10781576.743 20512321.207 10651959.372 10 0 60095 21600.00000 0 11210985.605 21565107.223 7720888.718 10 0 60095 22500.00000 0 11583827.342 22238165.047 4639724.155 10 0 60095 23400.00000 0 11844524.197 22532260.776 1468340.665 10 0 60095 24300.00000 0 11940151.192 22461048.798 -1731598.945 10 0 60095 25200.00000 0 11822890.150 22050362.657 -4897848.428 10 0 60095 26100.00000 0 11452280.258 21337009.454 -7968796.125 10 0 60095 27000.00000 0 10797168.501 20367118.863 -10884672.049 10 0 60095 27900.00000 0 9837275.866 19194116.839 -13588719.548 10 0 60095 28800.00000 0 8564311.564 17876410.163 -16028307.741 10 0 60095 29700.00000 0 6982586.718 16474880.177 -18155962.290 10 0 60095 30600.00000 0 5109100.258 15050292.095 -19930293.871 10 0 60095 31500.00000 0 2973092.223 13660729.645 -21316805.917 10 0 60095 32400.00000 0 615082.236 12359163.474 -22288565.890 10 0 60095 33300.00000 0 -1914567.365 11191255.749 -22826727.198 10 0 60095 34200.00000 0 -4557504.263 10193493.118 -22920891.971 10 0 60095 35100.00000 0 -7249577.858 9391725.987 -22569308.111 10 0 60095 36000.00000 0 -9923278.982 8800174.748 -21778897.287 10 0 60095 36900.00000 0 -12510326.293 8420943.691 -20565113.818 10 0 60095 37800.00000 0 -14944292.097 8244061.875 -18951637.631 10 0 60095 38700.00000 0 -17163158.697 8248047.983 -16969907.549 10 0 60095 39600.00000 0 -19111699.404 8400974.126 -14658504.311 10 0 60095 40500.00000 0 -20743585.651 8661982.620 -12062395.494 10 0 60095 41400.00000 0 -22023133.227 8983190.699 -9232057.217 10 0 60095 42300.00000 0 -22926615.684 9311901.898 -6222489.907 10 0 60095 43200.00000 0 -23443091.176 9593029.998 -3092147.483 10 0 60095 44100.00000 0 -23574709.359 9771632.562 98199.025 10 0 60095 45000.00000 0 -23336486.748 9795446.623 3286641.093 10 0 60095 45900.00000 0 -22755561.215 9617319.123 6411332.464 10 0 60095 46800.00000 0 -21869957.987 9197429.276 9411685.741 10 0 60095 47700.00000 0 -20726919.863 8505208.943 12229542.616 10 0 60095 48600.00000 0 -19380872.341 7520879.866 14810295.319 10 0 60095 49500.00000 0 -17891109.344 6236542.767 17103938.057 10 0 60095 50400.00000 0 -16319296.561 4656772.055 19066028.661 10 0 60095 51300.00000 0 -14726896.643 2798690.462 20658542.617 10 0 60095 52200.00000 0 -13172623.441 691519.449 21850603.809 10 0 60095 53100.00000 0 -11710030.978 -1624377.103 22619078.577 10 0 60095 54000.00000 0 -10385337.040 -4098917.590 22949022.274 10 0 60095 54900.00000 0 -9235571.433 -6674138.193 22833970.073 10 0 60095 55800.00000 0 -8287125.508 -9286364.607 22276066.501 10 0 60095 56700.00000 0 -7554762.967 -11868631.549 21286030.944 10 0 60095 57600.00000 0 -7041132.901 -14353251.111 19882959.206 10 0 60095 58500.00000 0 -6736805.343 -16674424.611 18093964.095 10 0 60095 59400.00000 0 -6620827.873 -18770790.344 15953660.909 10 0 60095 60300.00000 0 -6661780.093 -20587801.872 13503506.646 10 0 60095 61200.00000 0 -6819281.906 -22079837.963 10791004.625 10 0 60095 62100.00000 0 -7045892.250 -23211956.033 7868789.006 10 0 60095 63000.00000 0 -7289318.210 -23961215.454 4793606.300 10 0 60095 63900.00000 0 -7494841.005 -24317514.780 1625213.342 10 0 60095 64800.00000 0 -7607855.689 -24283907.271 -1574786.781 10 0 60095 65700.00000 0 -7576416.290 -23876380.989 -4744147.838 10 0 60095 66600.00000 0 -7353677.437 -23123112.447 -7821198.419 10 0 60095 67500.00000 0 -6900127.747 -22063225.199 -10746050.165 10 0 60095 68400.00000 0 -6185518.907 -20745105.805 -13461771.755 10 0 60095 69300.00000 0 -5190407.252 -19224348.576 -15915504.796 10 0 60095 70200.00000 0 -3907241.190 -17561416.156 -18059499.118 10 0 60095 71100.00000 0 -2340947.105 -15819115.049 -19852046.690 10 0 60095 72000.00000 0 -508987.781 -14059992.858 -21258295.681 10 0 60095 72900.00000 0 1559110.216 -12343767.022 -22250928.734 10 0 60095 73800.00000 0 3822741.325 -10724893.216 -22810692.478 10 0 60095 74700.00000 0 6231677.390 -9250375.356 -22926768.295 10 0 60095 75600.00000 0 8727935.365 -7957908.578 -22596977.618 10 0 60095 76500.00000 0 11247978.805 -6874432.295 -21827818.281 10 0 60095 77400.00000 0 13725161.629 -6015152.918 -20634331.663 10 0 60095 78300.00000 0 16092312.618 -5383075.936 -19039803.666 10 0 60095 79200.00000 0 18284353.267 -4969065.485 -17075305.639 10 0 60095 80100.00000 0 20240840.211 -4752427.409 -14779084.473 10 0 60095 81000.00000 0 21908326.670 -4701989.698 -12195813.944 10 0 60095 81900.00000 0 23242444.938 -4777633.419 -9375722.026 10 0 60095 82800.00000 0 24209623.616 -4932208.265 -6373611.399 10 0 60095 83700.00000 0 24788368.619 -5113750.828 -3247792.375 10 0 60095 84600.00000 0 24970055.301 -5267911.012 -58949.223 10 0 60095 85500.00000 0 24759199.519 -5340483.434 3131037.837 10 0 60096 0.00000 0 24173197.358 -5279936.357 6260291.657 10 0 60096 900.00000 0 23241545.014 -5039830.987 9268136.515 10 0 60096 1800.00000 0 22004573.208 -4581028.844 12096268.451 10 0 60096 2700.00000 0 20511748.753 -3873593.869 14689880.699 10 0 60096 3600.00000 0 18819615.424 -2898308.896 16998718.710 10 0 60096 4500.00000 0 16989460.144 -1647742.361 18978046.612 10 0 60096 5400.00000 0 15084801.818 -126819.861 20589506.870 10 0 60096 6300.00000 0 13168807.155 1647124.245 21801857.388 10 0 60096 7200.00000 0 11301740.592 3644818.467 22591572.530 10 0 60096 8100.00000 0 9538553.716 5826030.773 22943297.108 10 0 60096 9000.00000 0 7926713.699 8141011.053 22850144.994 10 0 60096 9900.00000 0 6504360.295 10532341.133 22313836.660 10 0 60096 10800.00000 0 5298867.408 12937117.150 21344672.799 10 0 60096 11700.00000 0 4325868.560 15289375.225 19961343.928 10 0 60096 12600.00000 0 3588786.503 17522660.957 18190578.833 10 0 60096 13500.00000 0 3078886.382 19572636.969 16066637.564 10 0 60096 14400.00000 0 2775850.114 21379620.639 13630657.646 10 0 60096 15300.00000 0 2648847.868 22890946.484 10929865.054 10 0 60096 16200.00000 0 2658061.589 24063054.489 8016664.311 10 0 60096 17100.00000 0 2756596.256 24863216.596 4947624.639 10 0 60096 18000.00000 0 2892697.988 25270828.404 1782381.574 10 0 60096 18900.00000 0 3012184.712 25278211.099 -1417524.585 10 0 60096 19800.00000 0 3060985.789 24890889.230 -4589850.531 10 0 60096 20700.00000 0 2987682.028 24127331.973 -7672867.773 10 0 60096 21600.00000 0 2745937.228 23018168.411 -10606571.941 10 0 60096 22500.00000 0 2296716.862 21604909.643 -13333859.064 10 0 60096 23400.00000 0 1610198.449 19938231.622 -15801644.901 10 0 60096 24300.00000 0 667291.344 18075891.223 -17961904.747 10 0 60096 25200.00000 0 -539299.722 16080363.591 -19772612.853 10 0 60096 26100.00000 0 -2004513.484 14016300.468 -21198562.818 10 0 60096 27000.00000 0 -3710898.168 11947916.543 -22212052.913 10 0 60096 27900.00000 0 -5629107.071 9936413.595 -22793423.182 10 0 60096 28800.00000 0 -7718903.703 8037550.311 -22931434.195 10 0 60096 29700.00000 0 -9930634.952 6299459.120 -22623480.581 10 0 60096 30600.00000 0 -12207111.170 4760800.699 -21875635.677 10 0 60096 31500.00000 0 -14485814.917 3449332.329 -20702526.912 10 0 60096 32400.00000 0 -16701346.420 2380948.720 -19127044.799 10 0 60096 33300.00000 0 -18788003.925 1559233.869 -17179891.513 10 0 60096 34200.00000 0 -20682391.421 975541.081 -14898978.112 10 0 60096 35100.00000 0 -22325945.144 609595.989 -12328682.364 10 0 60096 36000.00000 0 -23667273.644 430595.507 -9518981.755 10 0 60096 36900.00000 0 -24664213.983 398754.830 -6524478.780 10 0 60096 37800.00000 0 -25285518.598 467235.859 -3403337.677 10 0 60096 38700.00000 0 -25512102.798 584374.440 -216153.473 10 0 60096 39600.00000 0 -25337801.381 696111.459 2975224.408 10 0 60096 40500.00000 0 -24769603.375 748524.348 6108890.958 10 0 60096 41400.00000 0 -23827355.845 690351.607 9124083.489 10 0 60096 42300.00000 0 -22542949.777 475403.405 11962355.385 10 0 60096 43200.00000 0 -20959022.687 64756.375 14568703.247 10 0 60096 44100.00000 0 -19127232.467 -571360.102 16892625.997 10 0 60096 45000.00000 0 -17106174.692 -1452065.741 18889096.074 10 0 60096 45900.00000 0 -14959030.083 -2584782.665 20519424.660 10 0 60096 46800.00000 0 -12751039.682 -3964684.717 21752005.087 10 0 60096 47700.00000 0 -10546912.184 -5574666.724 22562920.768 10 0 60096 48600.00000 0 -8408270.382 -7385836.156 22936406.615 10 0 60096 49500.00000 0 -6391241.887 -9358508.117 22865155.443 10 0 60096 50400.00000 0 -4544293.290 -11443663.775 22350463.547 10 0 60096 51300.00000 0 -2906396.848 -13584813.189 21402212.443 10 0 60096 52200.00000 0 -1505605.149 -15720186.644 20038686.557 10 0 60096 53100.00000 0 -358092.483 -17785164.708 18286229.530 10 0 60096 54000.00000 0 532297.566 -19714847.020 16178744.744 10 0 60096 54900.00000 0 1173979.738 -21446653.538 13757048.551 10 0 60096 55800.00000 0 1587033.119 -22922850.076 11068087.626 10 0 60096 56700.00000 0 1802110.693 -24092892.549 8164034.667 10 0 60096 57600.00000 0 1858898.476 -24915491.419 5101279.244 10 0 60096 58500.00000 0 1804189.467 -25360309.032 1939333.091 10 0 60096 59400.00000 0 1689654.276 -25409217.725 -1260328.888 10 0 60096 60300.00000 0 1569403.358 -25057064.804 -4435468.991 10 0 60096 61200.00000 0 1497445.020 -24311911.297 -7524304.367 10 0 60096 62100.00000 0 1525148.000 -23194733.633 -10466717.395 10 0 60096 63000.00000 0 1698817.408 -21738600.260 -13205434.203 10 0 60096 63900.00000 0 2057488.106 -19987357.533 -15687147.398 10 0 60096 64800.00000 0 2631030.306 -17993880.105 -17863560.319 10 0 60096 65700.00000 0 3438648.842 -15817959.448 -19692331.878 10 0 60096 66600.00000 0 4487840.719 -13523919.401 -21137903.201 10 0 60096 67500.00000 0 5773855.979 -11178058.974 -22172189.935 10 0 60096 68400.00000 0 7279685.474 -8846029.637 -22775126.876 10 0 60096 69300.00000 0 8976576.822 -6590256.814 -22935054.700 10 0 60096 70200.00000 0 10825057.420 -4467513.065 -22648941.704 10 0 60096 71100.00000 0 12776422.105 -2526743.715 -21922436.775 10 0 60096 72000.00000 0 14774623.432 -807234.878 -20769753.027 10 0 60096 72900.00000 0 16758485.697 662800.890 -19213384.816 10 0 60096 73800.00000 0 18664150.275 1867163.651 -17283663.950 10 0 60096 74700.00000 0 20427650.075 2802092.331 -15018164.039 10 0 60096 75600.00000 0 21987505.581 3476162.119 -12460964.781 10 0 60096 76500.00000 0 23287233.982 3909659.255 -9661790.658 10 0 60096 77400.00000 0 24277666.556 4133461.311 -6675041.059 10 0 60096 78300.00000 0 24918977.512 4187471.798 -3558730.862 10 0 60096 79200.00000 0 25182339.663 4118676.569 -373362.312 10 0 60096 80100.00000 0 25051137.921 3978905.262 2819249.640 10 0 60096 81000.00000 0 24521690.262 3822393.207 5957175.535 10 0 60096 81900.00000 0 23603446.409 3703247.468 8979569.832 10 0 60096 82800.00000 0 22318656.334 3672924.393 11827846.315 10 0 60096 83700.00000 0 20701522.819 3777825.385 14446807.960 10 0 60096 84600.00000 0 18796873.625 4057112.369 16785709.810 10 0 60096 85500.00000 0 16658408.694 4540835.033 18799234.861 10 0 60097 0.00000 0 14346595.401 5248448.732 20448364.724 10 0 60097 900.00000 0 11926297.697 6187785.999 21701129.864 10 0 60097 1800.00000 0 9464240.096 7354524.400 22533223.556 10 0 60097 2700.00000 0 7026406.856 8732175.086 22928471.336 10 0 60097 3600.00000 0 4675486.259 10292592.774 22879145.005 10 0 60097 4500.00000 0 2468463.803 11996987.589 22386116.225 10 0 60097 5400.00000 0 454463.324 13797397.983 21458846.381 10 0 60097 6300.00000 0 -1327075.272 15638564.941 20115212.342 10 0 60097 7200.00000 0 -2847806.667 17460130.743 18381170.684 10 0 60097 8100.00000 0 -4091421.075 19199071.858 16290265.784 10 0 60097 9000.00000 0 -5054076.702 20792265.335 13882990.141 10 0 60097 9900.00000 0 -5744305.897 22179081.952 11206008.203 10 0 60097 10800.00000 0 -6182399.221 23303897.716 8311257.730 10 0 60097 11700.00000 0 -6399293.503 24118418.126 5254945.428 10 0 60097 12600.00000 0 -6435011.016 24583716.937 2096455.972 10 0 60097 13500.00000 0 -6336716.022 24671902.795 -1102804.345 10 0 60097 14400.00000 0 -6156471.461 24367342.468 -4280606.541 10 0 60097 15300.00000 0 -5948791.495 23667388.017 -7375116.360 10 0 60097 16200.00000 0 -5768094.559 22582576.189 -10326105.632 10 0 60097 17100.00000 0 -5666165.985 21136290.684 -13076132.995 10 0 60097 18000.00000 0 -5689738.932 19363900.873 -15571669.976 10 0 60097 18900.00000 0 -5878297.318 17311412.716 -17764149.686 10 0 60097 19800.00000 0 -6262194.938 15033688.353 -19610917.075 10 0 60097 20700.00000 0 -6861171.360 12592309.079 -21076061.855 10 0 60097 21600.00000 0 -7683328.195 10053171.290 -22131117.786 10 0 60097 22500.00000 0 -8724609.682 7483916.055 -22755614.871 10 0 60097 23400.00000 0 -9968810.050 4951299.740 -22937474.026 10 0 60097 24300.00000 0 -11388107.768 2518615.206 -22673237.030 10 0 60097 25200.00000 0 -12944104.548 243270.712 -21968127.776 10 0 60097 26100.00000 0 -14589325.674 -1825373.262 -20835944.141 10 0 60097 27000.00000 0 -16269118.834 -3647820.145 -19298783.011 10 0 60097 27900.00000 0 -17923871.907 -5195831.931 -17386604.155 10 0 60097 28800.00000 0 -19491456.734 -6453345.733 -15136641.733 10 0 60097 29700.00000 0 -20909796.457 -7416875.716 -12592675.106 10 0 60097 30600.00000 0 -22119448.781 -8095385.519 -9804173.308 10 0 60097 31500.00000 0 -23066096.855 -8509638.429 -6825330.043 10 0 60097 32400.00000 0 -23702843.367 -8691054.506 -3714008.188 10 0 60097 33300.00000 0 -23992211.718 -8680124.444 -530614.524 10 0 60097 34200.00000 0 -23907770.497 -8524448.475 2663073.160 10 0 60097 35100.00000 0 -23435313.329 -8276484.217 5805103.636 10 0 60097 36000.00000 0 -22573544.862 -7991099.356 8834551.171 10 0 60097 36900.00000 0 -21334244.354 -7723033.052 11692692.538 10 0 60097 37800.00000 0 -19741900.155 -7524373.445 14324139.573 10 0 60097 38700.00000 0 -17832830.347 -7442157.741 16677905.745 10 0 60097 39600.00000 0 -15653826.094 -7516195.931 18708386.677 10 0 60097 40500.00000 0 -13260373.828 -7777209.668 20376236.423 10 0 60097 41400.00000 0 -10714529.652 -8245364.546 21649123.392 10 0 60097 42300.00000 0 -8082533.463 -8929257.573 22502352.068 10 0 60097 43200.00000 0 -5432260.791 -9825402.725 22919339.235 10 0 60097 44100.00000 0 -2830616.906 -10918236.879 22891935.929 10 0 60097 45000.00000 0 -340980.023 -12180646.880 22420589.075 10 0 60097 45900.00000 0 1979201.550 -13574996.961 21514339.492 10 0 60097 46800.00000 0 4080559.778 -15054615.000 20190655.770 10 0 60097 47700.00000 0 5923616.319 -16565676.879 18475106.405 10 0 60097 48600.00000 0 7480176.560 -18049411.495 16400875.474 10 0 60097 49500.00000 0 8734250.694 -19444535.208 14008130.048 10 0 60097 50400.00000 0 9682463.735 -20689814.476 11343250.466 10 0 60097 51300.00000 0 10333937.608 -21726649.522 8457937.402 10 0 60097 52200.00000 0 10709650.440 -22501570.398 5408212.281 10 0 60097 53100.00000 0 10841300.267 -22968539.949 2253330.104 10 0 60097 54000.00000 0 10769721.364 -23090965.829 -945374.226 10 0 60097 54900.00000 0 10542920.570 -22843335.631 -4125683.305 10 0 60097 55800.00000 0 10213817.305 -22212404.903 -7225714.362 10 0 60097 56700.00000 0 9837783.793 -21197886.640 -10185131.553 10 0 60097 57600.00000 0 9470090.669 -19812611.951 -12946328.835 10 0 60097 58500.00000 0 9163367.263 -18082154.099 -15455559.357 10 0 60097 59400.00000 0 8965185.241 -16043930.929 -17663988.539 10 0 60097 60300.00000 0 8915868.927 -13745822.818 -19528649.687 10 0 60097 61200.00000 0 9046625.864 -11244363.839 -21013283.129 10 0 60097 62100.00000 0 9378077.358 -8602581.718 -22089042.429 10 0 60097 63000.00000 0 9919251.616 -5887576.855 -22735054.089 10 0 60097 63900.00000 0 10667082.302 -3167941.420 -22938820.152 10 0 60097 64800.00000 0 11606433.858 -511126.027 -22696456.337 10 0 60097 65700.00000 0 12710652.589 2019136.687 -22012761.598 10 0 60097 66600.00000 0 13942620.321 4365244.768 -20901118.230 10 0 60097 67500.00000 0 15256266.230 6477876.368 -19383224.922 10 0 60097 68400.00000 0 16598473.216 8317787.443 -17488668.292 10 0 60097 69300.00000 0 17911298.558 9857184.156 -15254341.560 10 0 60097 70200.00000 0 19134415.413 11080614.339 -12723721.868 10 0 60097 71100.00000 0 20207672.463 11985342.567 -9946020.525 10 0 60097 72000.00000 0 21073663.994 12581195.000 -6975222.908 10 0 60097 72900.00000 0 21680202.364 12889882.447 -3869036.930 10 0 60097 73800.00000 0 21982588.888 12943831.878 -687770.706 10 0 60097 74700.00000 0 21945587.723 12784577.187 2506838.479 10 0 60097 75600.00000 0 21545019.872 12460778.376 5652821.007 10 0 60097 76500.00000 0 20768910.445 12025953.693 8689174.246 10 0 60097 77400.00000 0 19618141.047 11536021.111 11557041.102 10 0 60097 78300.00000 0 18106579.946 11046753.206 14200845.172 10 0 60097 79200.00000 0 16260684.342 10611252.827 16569360.983 10 0 60097 80100.00000 0 14118591.067 10277555.785 18616699.121 10 0 60097 81000.00000 0 11728733.051 10086461.215 20303187.976 10 0 60097 81900.00000 0 9148038.399 10069680.564 21596135.894 10 0 60097 82800.00000 0 6439785.972 10248382.776 22470459.747 10 0 60097 83700.00000 0 3671205.344 10632196.709 22909168.524 10 0 60097 84600.00000 0 910919.348 11218712.895 22903693.033 10 0 60097 85500.00000 0 -1773666.079 11993506.048 22454055.523 99